Probability
42 29 6 0 0 0 0 0 0 0 0 0 0 0 0 0 0 0 0 10 39 71 81 87 94 97 94 94 97 97 94 94 97 97 97 94 90 90 94 90 87 84 77 77 77 77 68 71 71
19 16 6 3 0 0 0 0 0 0 0 0 0 0 0 10 10 0 0 29 68 74 77 87 94 97 100 100 100 100 97 97 97 97 97 97 90 90 87 90 87 90 84 77 77 71 61 65 68
10 10 3 0 0 0 0 0 0 0 0 0 0 0 3 6 6 3 3 45 58 68 71 84 100 100 97 100 100 100 97 97 97 97 97 97 97 94 94 87 90 87 87 84 74 74 65 55 65
13 6 0 0 0 0 0 0 0 0 0 0 0 0 0 16 6 6 42 55 55 55 84 97 100 100 100 100 100 100 97 97 97 97 94 97 94 94 97 100 97 90 94 84 74 71 74 68 61
3 0 0 0 0 0 0 0 0 0 0 0 0 0 3 23 23 26 48 55 55 68 87 97 100 100 100 100 100 100 100 97 97 97 94 94 94 97 100 100 100 94 84 77 77 71 61 61 61
0 0 0 0 0 0 0 0 0 0 0 0 0 0 6 19 10 35 42 61 68 81 84 90 100 100 100 100 100 97 100 100 100 97 97 97 94 97 97 94 94 77 81 87 77 68 52 48 58
0 0 0 0 0 0 0 0 0 0 0 0 0 3 10 19 16 16 26 42 52 68 77 81 87 97 100 100 100 100 97 100 100 97 97 94 100 100 90 94 87 77 71 71 65 45 45 42 65
0 0 0 0 0 0 0 0 0 0 0 0 0 3 6 13 10 6 19 29 39 42 58 58 65 68 68 81 97 97 94 90 97 97 87 87 90 90 94 94 87 77 77 71 58 55 52 68 71
0 0 0 0 0 0 0 0 0 0 0 0 0 3 3 13 6 6 10 23 26 39 42 35 39 32 48 55 87 84 84 81 77 74 90 65 39 48 68 87 94 71 61 68 61 68 71 74 74
0 0 0 0 0 0 0 0 0 0 0 0 3 6 19 26 6 0 3 10 19 29 32 23 26 26 35 48 45 42 48 48 39 32 32 19 10 10 52 81 74 77 81 77 71 65 52 32 26
0 0 0 0 0 0 0 0 0 0 0 0 6 10 23 13 10 6 3 3 3 13 23 23 19 19 26 32 29 26 26 19 19 16 13 10 6 10 13 13 13 13 23 23 26 23 13 13 0
0 0 0 3 0 0 0 0 0 0 0 0 6 13 19 16 13 3 0 3 6 13 16 19 13 10 16 16 23 10 3 6 6 3 3 6 6 3 3 3 3 3 0 6 3 0 0 0 0
0 3 3 0 0 0 0 0 3 3 0 0 10 6 10 10 3 3 0 3 3 6 10 10 6 10 13 10 10 10 0 3 3 3 3 3 3 3 3 3 3 0 0 0 0 0 0 0 3
0 0 0 0 0 0 0 3 3 3 3 3 6 3 3 3 3 3 3 3 3 10 6 6 3 3 0 3 3 0 0 0 0 0 6 3 0 0 0 0 0 0 0 0 0 0 0 0 0
0 0 0 0 0 0 0 3 3 3 3 3 6 3 3 6 6 6 3 3 3 6 6 3 10 6 3 6 6 6 0 0 0 3 3 0 0 0 0 0 0 0 0 0 0 0 0 0 0
0 0 0 0 0 0 0 3 3 3 3 3 0 3 3 6 10 10 3 3 3 10 6 6 13 6 3 6 6 6 0 0 3 3 3 6 0 0 0 0 0 0 0 0 0 0 0 0 0
0 0 0 0 0 0 0 6 6 6 3 3 0 3 6 10 13 16 13 10 10 10 6 6 6 6 6 6 3 6 3 3 0 0 0 0 3 0 0 0 0 0 0 0 0 0 0 0 3
0 0 0 0 0 0 3 6 3 3 3 3 10 10 10 13 16 16 16 10 16 16 6 10 6 3 10 6 10 10 6 6 0 0 0 0 0 0 0 0 0 0 0 0 0 0 3 3 3
0 0 0 3 3 3 3 3 0 0 0 10 10 10 13 16 19 16 16 16 10 13 6 6 6 10 10 13 13 13 10 10 6 0 0 3 0 0 0 0 0 3 3 0 0 0 3 3 3
0 0 3 3 6 3 3 0 0 0 3 10 10 6 10 16 19 16 16 13 13 16 13 6 13 13 13 13 10 10 10 6 6 10 6 3 3 3 6 3 0 3 3 3 3 3 3 3 3
0 0 3 6 6 3 3 3 3 0 6 13 10 10 10 16 19 16 19 19 26 19 16 23 16 10 16 16 13 16 13 13 13 10 10 6 3 6 10 6 6 3 3 3 3 3 3 3 3
0 0 3 6 3 3 0 0 0 3 3 10 13 13 13 19 16 19 23 23 26 23 23 23 19 16 19 23 23 23 19 16 6 3 6 6 10 6 10 10 6 6 6 6 6 6 6 6 6
0 0 0 0 0 0 0 0 0 0 3 10 13 13 16 16 23 23 26 23 19 29 29 26 26 26 23 19 16 16 13 6 6 6 13 13 10 10 13 13 6 6 6 6 10 10 3 3 3
0 0 0 0 0 0 0 0 0 0 3 6 10 13 16 16 16 13 23 26 26 32 32 29 26 19 19 16 16 16 16 13 13 16 16 16 10 10 10 16 16 6 6 6 6 6 3 3 3
0 0 0 0 0 0 0 0 0 0 0 3 10 16 19 19 16 16 16 23 29 29 29 32 29 23 19 16 23 26 23 16 26 23 16 13 13 10 13 10 13 6 10 10 6 10 3 3 3
0 0 0 0 0 0 0 0 0 3 3 6 6 19 23 26 23 23 19 23 26 35 26 35 29 26 19 23 23 29 26 26 23 23 16 16 16 16 19 13 16 10 10 10 10 10 6 6 3
0 0 0 0 0 0 0 0 3 3 3 6 16 23 32 26 23 23 26 19 26 26 29 45 29 26 23 29 26 26 26 23 26 23 23 19 19 19 19 16 16 16 13 13 10 6 6 6 6
0 0 0 0 0 0 0 0 0 6 3 6 10 23 26 23 23 26 23 23 29 39 32 35 35 39 29 26 32 32 29 26 26 23 23 23 19 23 23 19 23 19 13 10 6 6 6 6 6
0 0 0 0 0 0 0 0 0 3 3 6 10 13 23 26 26 26 19 23 32 35 29 29 39 35 35 32 32 32 32 29 29 29 29 23 23 23 26 26 26 19 16 6 6 6 6 6 10
0 0 0 0 0 0 0 0 0 3 6 6 6 6 23 23 19 23 16 26 32 39 32 32 35 45 39 35 32 35 35 32 32 32 29 29 29 26 26 26 23 19 16 13 10 10 10 10 10
Height
5896 5894 5894 5893 5891 5889 5886 5885 5883 5882 5881 5880 5879 5878 5878 5878 5879 5880 5878 5876 5875 5875 5874 5874 5873 5873 5873 5873 5873 5873 5874 5874 5874 5875 5875 5875 5876 5876 5877 5877 5877 5878 5878 5879 5879 5880 5881 5881 5882
5899 5898 5897 5895 5893 5891 5889 5886 5885 5884 5883 5881 5880 5879 5879 5879 5879 5879 5877 5877 5877 5876 5875 5875 5874 5874 5874 5874 5874 5874 5875 5875 5875 5876 5876 5876 5877 5877 5878 5878 5879 5879 5880 5881 5881 5882 5882 5883 5883
5901 5900 5900 5898 5895 5893 5891 5889 5887 5886 5885 5883 5882 5882 5881 5881 5880 5880 5879 5878 5878 5877 5877 5876 5875 5875 5875 5875 5875 5875 5876 5876 5876 5877 5877 5877 5878 5878 5879 5880 5880 5881 5881 5882 5882 5883 5883 5884 5884
5905 5904 5903 5900 5898 5896 5894 5892 5890 5888 5887 5886 5885 5884 5884 5883 5882 5881 5881 5880 5879 5878 5878 5877 5876 5876 5876 5876 5876 5876 5877 5877 5877 5878 5878 5878 5879 5879 5880 5881 5881 5882 5882 5883 5884 5884 5885 5885 5885
5907 5906 5905 5902 5900 5899 5896 5894 5893 5891 5890 5888 5887 5887 5886 5885 5884 5883 5882 5882 5881 5880 5879 5878 5877 5877 5876 5876 5877 5877 5877 5878 5878 5879 5879 5879 5880 5880 5881 5882 5882 5883 5883 5884 5885 5885 5886 5886 5887
5910 5908 5907 5905 5903 5901 5899 5897 5895 5894 5893 5891 5890 5889 5888 5888 5886 5885 5884 5883 5882 5881 5880 5878 5878 5878 5877 5877 5877 5878 5878 5879 5879 5879 5880 5880 5881 5881 5882 5883 5883 5884 5884 5885 5886 5886 5887 5887 5888
5913 5911 5909 5908 5906 5904 5902 5900 5898 5897 5896 5895 5893 5891 5890 5889 5888 5887 5886 5885 5883 5882 5881 5880 5879 5879 5879 5879 5879 5879 5879 5879 5880 5880 5881 5881 5882 5882 5883 5883 5884 5884 5885 5886 5886 5887 5888 5888 5889
5915 5915 5912 5910 5908 5907 5905 5903 5902 5900 5899 5898 5896 5894 5893 5892 5890 5889 5887 5886 5885 5884 5883 5882 5881 5881 5880 5880 5880 5880 5880 5880 5881 5881 5881 5882 5882 5883 5884 5884 5885 5885 5886 5887 5887 5888 5888 5889 5889
5918 5918 5915 5913 5912 5911 5908 5907 5906 5904 5902 5900 5899 5897 5896 5894 5892 5891 5889 5888 5886 5885 5884 5883 5883 5882 5881 5881 5881 5881 5881 5881 5882 5882 5882 5883 5883 5884 5884 5885 5886 5886 5887 5888 5888 5889 5889 5890 5890
5920 5919 5918 5917 5915 5914 5912 5910 5909 5907 5905 5903 5902 5900 5898 5897 5895 5893 5891 5889 5888 5887 5886 5885 5884 5883 5883 5882 5882 5882 5882 5882 5882 5882 5883 5883 5884 5885 5885 5886 5886 5887 5888 5888 5889 5889 5890 5890 5891
5922 5922 5921 5919 5918 5917 5915 5913 5912 5910 5909 5907 5905 5903 5901 5899 5897 5894 5893 5891 5890 5889 5887 5887 5886 5885 5884 5884 5883 5883 5883 5883 5883 5883 5883 5884 5885 5886 5886 5887 5887 5888 5888 5889 5889 5890 5890 5891 5891
5925 5924 5923 5922 5921 5919 5918 5916 5915 5913 5912 5910 5908 5906 5904 5901 5899 5896 5894 5893 5892 5890 5889 5888 5887 5886 5885 5885 5884 5884 5884 5884 5884 5884 5884 5885 5886 5887 5887 5888 5888 5889 5889 5889 5890 5890 5891 5891 5892
5927 5927 5926 5925 5924 5922 5921 5919 5918 5916 5914 5913 5910 5908 5906 5903 5901 5898 5896 5894 5893 5892 5891 5890 5889 5888 5887 5886 5885 5885 5885 5885 5885 5885 5885 5885 5886 5887 5888 5888 5889 5889 5889 5890 5890 5891 5891 5892 5892
5929 5929 5928 5927 5926 5924 5923 5922 5920 5918 5916 5915 5913 5911 5908 5905 5903 5900 5898 5896 5895 5893 5892 5891 5890 5889 5888 5887 5887 5886 5886 5885 5886 5886 5886 5886 5887 5887 5888 5888 5889 5889 5890 5890 5890 5891 5891 5892 5892
5930 5931 5930 5929 5928 5927 5926 5925 5923 5921 5919 5917 5915 5913 5911 5908 5905 5902 5900 5898 5897 5895 5894 5893 5892 5891 5890 5889 5888 5887 5887 5886 5886 5886 5887 5887 5887 5888 5888 5889 5889 5889 5890 5890 5890 5891 5891 5892 5892
5931 5932 5932 5931 5930 5929 5929 5927 5926 5924 5922 5920 5917 5915 5913 5910 5907 5905 5902 5900 5898 5897 5895 5894 5893 5892 5891 5890 5889 5888 5888 5887 5887 5887 5887 5887 5888 5888 5888 5888 5889 5889 5889 5890 5890 5891 5891 5891 5891
5932 5932 5932 5933 5932 5931 5930 5929 5928 5926 5924 5922 5920 5917 5915 5912 5910 5907 5905 5902 5900 5899 5898 5896 5895 5894 5893 5892 5891 5890 5889 5888 5888 5888 5888 5888 5888 5888 5888 5888 5888 5889 5889 5889 5890 5890 5891 5891 5891
5933 5933 5933 5933 5933 5932 5931 5931 5929 5928 5926 5924 5921 5919 5917 5914 5912 5909 5906 5904 5902 5901 5899 5898 5897 5896 5895 5894 5893 5891 5890 5890 5889 5889 5889 5888 5888 5888 5888 5888 5888 5888 5889 5889 5889 5890 5890 5890 5890
5933 5933 5934 5934 5934 5933 5933 5932 5931 5930 5928 5926 5923 5921 5919 5917 5914 5911 5908 5907 5905 5903 5902 5900 5899 5898 5897 5895 5894 5893 5892 5891 5890 5890 5889 5889 5889 5888 5888 5888 5888 5888 5888 5889 5889 5889 5889 5889 5889
5933 5934 5934 5934 5934 5934 5934 5933 5933 5931 5930 5928 5925 5923 5921 5918 5916 5914 5911 5909 5907 5905 5904 5902 5901 5900 5898 5897 5896 5894 5893 5892 5892 5891 5890 5889 5889 5889 5888 5888 5888 5888 5888 5888 5888 5888 5888 5887 5887
5932 5933 5934 5934 5934 5934 5934 5934 5934 5933 5931 5929 5927 5925 5922 5920 5918 5916 5914 5911 5909 5907 5905 5904 5903 5902 5900 5899 5897 5896 5895 5894 5893 5892 5891 5890 5889 5889 5889 5888 5888 5887 5887 5887 5887 5886 5886 5886 5886
5932 5933 5933 5934 5934 5934 5935 5935 5935 5934 5932 5930 5928 5926 5924 5922 5920 5918 5915 5913 5911 5909 5907 5906 5904 5903 5902 5900 5899 5898 5896 5895 5894 5893 5891 5891 5890 5889 5889 5888 5887 5887 5886 5886 5885 5885 5885 5885 5885
5930 5931 5933 5933 5934 5934 5935 5935 5936 5934 5933 5932 5929 5927 5925 5923 5921 5919 5917 5915 5913 5911 5909 5907 5906 5904 5903 5902 5900 5899 5898 5896 5895 5894 5892 5891 5890 5889 5888 5887 5886 5886 5885 5884 5884 5884 5883 5883 5883
5929 5930 5931 5932 5933 5934 5934 5935 5935 5934 5933 5932 5930 5928 5926 5924 5922 5920 5919 5916 5914 5912 5911 5909 5907 5906 5904 5903 5902 5900 5899 5897 5896 5894 5893 5891 5889 5888 5887 5886 5885 5884 5883 5883 5882 5882 5881 5881 5880
5926 5928 5929 5930 5931 5933 5933 5934 5935 5934 5933 5932 5930 5929 5927 5925 5923 5922 5920 5918 5916 5914 5912 5911 5909 5907 5906 5904 5903 5901 5900 5898 5896 5894 5892 5891 5889 5887 5886 5885 5884 5883 5882 5881 5880 5880 5879 5878 5877
5924 5926 5928 5929 5930 5931 5932 5932 5934 5933 5932 5931 5930 5929 5927 5925 5924 5922 5920 5918 5917 5915 5914 5912 5910 5909 5907 5906 5904 5902 5900 5898 5897 5895 5893 5891 5889 5887 5885 5884 5882 5881 5880 5879 5878 5878 5877 5876 5875
5921 5923 5925 5926 5927 5929 5930 5931 5932 5932 5932 5931 5930 5929 5927 5926 5924 5923 5921 5919 5917 5916 5914 5913 5912 5910 5908 5907 5905 5903 5901 5899 5897 5895 5893 5890 5888 5886 5884 5883 5881 5879 5878 5877 5876 5875 5874 5874 5873
5917 5919 5921 5923 5924 5925 5927 5928 5931 5930 5930 5930 5929 5928 5927 5926 5925 5923 5921 5919 5917 5916 5915 5913 5912 5910 5909 5908 5906 5904 5902 5899 5897 5894 5892 5890 5887 5885 5883 5881 5880 5878 5876 5875 5874 5873 5872 5871 5870
5913 5915 5917 5919 5921 5923 5924 5928 5928 5929 5929 5929 5928 5927 5926 5925 5924 5923 5921 5919 5918 5916 5915 5913 5912 5910 5909 5908 5906 5904 5902 5899 5897 5894 5891 5889 5886 5884 5882 5879 5878 5876 5874 5873 5872 5871 5870 5869 5867
5908 5910 5913 5916 5918 5919 5921 5926 5926 5926 5927 5927 5926 5926 5925 5924 5923 5922 5920 5919 5917 5916 5914 5912 5911 5910 5909 5907 5905 5904 5901 5899 5896 5894 5891 5888 5885 5882 5880 5878 5876 5874 5872 5871 5870 5869 5867 5866 5865
Wind_Speed
22 21 20 20 20 19 19 20 19 18 16 15 14 13 13 12 10 9 9 9 8 7 7 8 8 8 8 9 9 9 8 8 8 8 7 7 7 7 7 7 7 7 6 6 6 6 6 7 7
21 20 19 19 19 20 20 21 20 19 17 16 15 14 13 12 11 10 10 9 8 7 7 7 8 8 8 8 8 8 8 8 7 7 7 7 7 7 7 7 6 6 6 6 6 6 6 6 6
20 20 20 20 19 21 21 22 21 20 18 17 16 15 13 11 11 10 10 9 8 7 7 8 8 7 7 7 7 7 7 7 7 7 7 7 6 6 6 6 6 6 6 6 6 6 6 6 6
21 21 19 20 21 22 22 22 22 21 19 18 17 15 13 12 11 10 10 9 8 7 8 8 8 8 7 7 7 7 7 7 7 7 7 6 6 6 6 6 6 6 6 6 6 6 6 6 6
20 20 19 20 21 22 23 23 23 22 20 18 16 15 13 13 12 11 10 9 9 8 8 9 8 8 8 7 7 7 6 6 6 6 6 6 6 7 6 6 6 6 6 6 6 6 6 5 5
21 20 20 20 21 22 23 23 23 22 20 18 16 15 14 13 12 12 11 10 10 10 10 9 9 8 8 8 7 7 6 6 5 5 6 6 6 6 6 5 6 6 6 6 5 5 5 5 5
21 20 20 21 23 23 24 23 23 22 20 19 17 16 15 13 13 12 12 11 11 11 10 10 9 8 8 7 7 6 6 5 5 5 5 5 5 5 5 5 5 5 5 5 5 4 4 4 4
20 20 20 22 23 24 24 25 23 22 21 20 18 17 15 14 13 13 12 11 11 11 11 11 10 9 8 7 7 6 6 5 5 4 4 5 5 5 5 5 5 5 5 5 4 4 4 4 3
20 19 21 23 23 23 24 25 24 23 21 20 20 18 16 14 14 14 13 13 12 12 12 11 11 9 8 8 7 6 5 5 4 4 4 5 5 5 5 5 5 5 4 4 4 4 4 3 3
19 19 21 22 23 23 23 24 23 23 22 21 20 18 17 15 14 14 14 14 13 13 12 12 11 10 9 8 7 6 5 5 5 4 3 4 5 5 4 4 4 4 4 3 3 3 4 3 3
17 19 19 20 22 23 23 23 23 22 22 20 19 18 17 16 15 14 14 14 14 13 12 12 11 10 9 8 8 7 6 6 5 5 4 4 4 4 4 4 4 4 3 3 2 3 3 3 3
15 16 18 19 20 21 22 22 21 21 21 19 18 18 18 17 16 15 14 14 13 13 12 12 12 11 10 9 8 7 6 6 5 5 4 4 4 3 4 4 4 4 3 2 2 2 2 2 2
12 14 15 17 19 20 21 21 21 20 20 18 17 17 18 17 17 16 15 14 13 13 12 12 11 11 10 9 8 7 6 5 5 4 4 4 3 3 3 3 3 3 3 3 2 2 2 1 1
10 11 13 15 17 18 19 20 20 20 19 17 16 17 17 17 17 16 15 15 14 13 12 11 11 10 10 9 8 6 6 6 5 4 4 4 3 3 3 2 2 3 3 3 2 2 2 1 1
8 9 10 12 15 17 18 19 20 20 19 17 16 16 17 16 16 17 16 15 15 14 13 12 11 10 10 10 9 7 6 5 4 4 4 3 2 2 2 2 1 2 3 3 2 2 2 1 1
6 7 8 10 12 14 16 18 19 19 17 16 16 16 16 16 17 17 16 16 15 14 13 12 12 11 10 10 10 8 7 6 5 4 3 2 2 2 1 1 2 2 3 3 3 2 2 2 2
5 5 6 7 9 11 14 15 17 17 17 15 15 15 14 15 16 16 16 16 16 14 13 12 12 11 10 10 10 9 8 7 5 5 4 3 2 1 0 1 1 2 2 3 3 3 3 3 3
3 4 5 6 8 9 11 13 15 15 15 15 14 14 14 14 15 16 16 17 16 15 14 13 12 12 11 10 10 10 9 8 6 6 5 4 3 2 1 0 1 1 2 3 3 3 3 4 4
5 3 2 4 6 7 9 10 12 13 14 13 13 13 14 14 15 15 16 16 16 15 14 14 13 12 12 11 11 10 9 9 8 6 6 5 4 2 2 1 1 2 2 2 3 4 4 5 5
7 5 3 1 3 5 6 8 9 11 12 12 11 11 13 14 15 15 15 15 16 15 14 13 13 12 12 12 11 10 10 10 10 9 7 6 5 4 3 2 2 2 2 3 3 4 5 5 5
10 7 6 2 1 3 4 6 8 9 10 11 11 11 11 12 13 14 15 15 15 15 15 14 13 12 12 12 12 12 11 11 11 10 9 8 6 5 4 3 3 3 3 4 4 5 5 6 6
12 10 8 6 2 1 3 5 6 8 9 10 10 10 10 11 11 12 13 13 14 14 14 13 13 12 12 13 13 12 11 11 11 10 9 8 7 6 5 5 5 4 5 5 5 5 5 6 7
15 13 11 8 6 3 3 4 5 6 8 9 9 9 9 9 10 10 11 12 12 13 13 13 13 12 12 12 12 12 12 11 11 10 10 9 8 7 6 5 5 6 6 6 6 6 6 7 8
18 15 13 11 9 7 5 5 4 6 7 8 8 9 9 8 8 9 10 11 11 12 12 12 13 12 12 12 12 12 12 12 12 11 10 10 10 9 7 7 6 6 7 7 7 8 8 9 9
19 17 16 13 11 9 7 7 5 6 6 7 8 9 9 8 7 8 9 10 10 11 11 11 12 12 12 13 13 13 12 12 12 12 12 12 11 10 9 8 8 8 8 7 7 8 9 9 9
21 19 18 17 15 12 10 9 7 6 6 6 7 8 8 7 7 8 9 10 10 10 11 10 11 11 12 12 13 14 13 13 12 12 12 12 11 10 10 9 9 8 8 8 8 9 10 9 9
24 21 20 20 18 16 14 12 10 8 7 7 7 7 7 6 6 7 8 9 9 10 10 10 9 10 10 11 12 13 14 14 13 13 13 13 12 12 11 11 10 10 9 10 10 10 11 11 11
26 24 22 22 20 18 16 15 12 10 8 8 7 7 7 6 6 6 7 8 8 9 9 9 8 8 9 10 11 13 14 14 14 14 14 14 13 13 12 12 12 11 10 11 11 11 11 11 11
28 26 24 23 22 20 19 15 13 12 10 9 8 7 7 6 6 6 7 7 7 8 9 8 7 8 9 10 11 13 14 15 15 16 17 16 14 14 14 13 12 12 11 11 11 12 12 12 13
30 28 26 25 24 23 22 18 15 13 11 10 9 8 7 7 7 7 7 7 7 7 8 8 8 8 9 11 12 14 15 16 17 17 17 17 16 16 15 14 14 13 12 12 13 13 13 13 13
Wind_Direction
58 58 58 58 55 53 55 56 52 49 48 50 52 54 55 57 58 60 61 60 60 62 66 71 74 74 74 76 79 81 81 81 80 77 76 78 82 85 89 91 93 96 97 96 96 97 94 98 98
59 58 56 56 55 54 53 54 52 48 47 50 52 54 56 58 60 61 61 61 65 70 75 80 82 81 79 79 79 80 81 82 81 80 79 83 86 88 89 91 93 95 93 92 91 94 95 94 95
60 59 56 55 55 55 54 53 52 49 48 51 54 55 55 58 60 60 61 62 67 72 76 81 82 85 83 80 80 80 80 80 81 83 82 86 90 91 89 88 92 94 94 93 91 91 97 95 96
59 59 56 54 54 56 56 55 53 50 49 51 53 54 55 55 58 61 63 65 67 71 74 77 77 79 81 79 80 82 82 81 82 83 83 88 94 97 96 94 98 97 95 95 94 95 95 96 94
59 59 58 55 55 55 56 56 54 50 48 51 54 55 55 56 59 62 63 64 66 69 70 72 71 72 74 75 78 80 83 82 83 86 87 90 95 99 100 99 95 95 97 97 97 99 100 98 96
60 58 59 58 56 55 55 54 53 50 48 50 55 57 57 56 58 60 62 64 64 66 67 68 70 69 71 75 79 80 82 83 84 85 90 93 99 100 99 97 97 101 102 101 103 103 105 102 99
59 59 60 59 56 55 55 53 50 50 48 49 53 57 57 55 56 59 62 62 63 63 62 63 65 69 69 73 78 80 81 85 88 90 94 98 101 100 102 104 105 108 108 106 108 109 108 107 105
62 60 60 58 55 53 54 53 49 48 47 47 50 54 56 54 55 57 59 60 61 60 58 57 62 67 67 69 74 78 80 82 86 93 102 107 106 105 108 109 111 113 111 109 109 115 114 107 106
65 62 61 59 57 55 54 53 50 47 46 46 47 50 52 52 53 56 56 57 59 60 58 56 58 62 66 68 71 73 75 80 82 89 103 115 119 118 118 114 117 116 112 109 114 123 121 110 109
69 65 63 61 61 57 54 52 49 47 46 47 48 49 50 50 51 55 55 55 57 58 56 56 58 60 63 64 67 70 75 80 79 81 99 118 129 128 129 125 125 122 119 119 121 122 119 119 122
72 67 64 61 61 58 54 51 48 47 45 45 47 48 49 49 47 50 52 52 53 54 53 53 54 56 59 64 67 70 75 80 79 82 95 114 127 135 133 131 128 128 127 131 131 133 132 137 140
75 70 67 62 59 57 53 48 46 43 42 45 46 46 46 45 44 46 49 51 51 51 52 53 52 52 55 62 65 64 69 75 78 84 98 112 122 128 134 135 136 132 130 128 137 140 149 151 148
80 72 67 62 56 54 50 46 41 38 37 41 43 42 42 42 43 46 47 48 48 48 50 52 52 52 51 55 61 62 67 72 74 82 95 102 113 127 135 143 146 147 140 134 145 150 161 162 135
86 75 67 60 56 51 50 45 40 33 31 38 39 38 37 39 41 44 46 47 48 47 48 49 50 51 49 51 55 62 67 70 67 76 91 99 106 125 139 136 155 163 152 146 144 158 161 134 172
99 84 68 59 56 52 49 44 38 32 34 36 35 35 35 37 41 43 45 46 45 46 46 47 49 50 48 49 56 62 61 59 61 67 77 91 105 129 141 145 164 172 177 177 180 180 185 224 247
112 94 72 58 55 52 47 43 36 30 30 30 31 33 35 37 41 43 46 46 44 45 47 49 49 49 49 50 51 58 58 58 63 63 69 82 85 100 148 180 195 192 198 201 209 218 220 238 258
126 102 83 61 52 50 46 38 33 30 29 28 30 34 36 40 42 44 46 46 45 45 46 46 47 50 51 51 49 50 54 57 59 58 59 66 71 75 37 217 194 197 207 211 223 236 247 257 267
158 123 93 65 56 51 44 38 32 30 29 26 29 34 37 39 40 41 44 45 44 45 47 49 52 52 52 49 49 48 49 51 53 54 51 47 50 40 25 273 215 208 213 213 224 237 256 266 266
187 154 106 81 59 53 43 36 31 27 27 26 28 32 34 35 38 39 43 45 45 46 47 50 52 51 51 49 46 44 46 47 47 43 37 34 37 27 13 357 305 270 248 248 251 261 265 269 268
197 187 169 122 49 41 38 31 26 24 22 22 26 28 32 36 39 41 43 45 45 44 44 46 46 46 47 47 45 43 44 44 43 42 39 35 30 20 15 0 334 305 276 269 269 272 270 274 271
206 204 193 197 35 22 22 20 20 19 16 18 23 27 33 35 36 37 40 42 43 43 44 44 42 42 44 44 44 44 44 41 38 37 38 35 28 15 359 347 321 310 296 287 286 285 275 275 275
216 217 215 214 228 356 358 3 14 14 13 13 19 23 28 32 35 35 37 41 41 41 41 40 39 40 40 40 40 40 39 36 33 31 27 22 12 4 353 340 327 321 312 303 297 298 289 282 281
219 223 223 228 235 252 306 332 359 1 8 10 14 17 19 19 26 31 34 38 38 38 39 37 37 38 37 37 37 36 35 32 30 27 21 14 5 354 344 336 323 312 304 300 295 295 292 288 285
223 228 230 236 240 250 277 300 328 345 356 1 6 7 9 9 15 25 30 35 37 37 38 37 36 37 36 34 32 31 29 26 24 20 15 8 2 356 351 340 328 319 311 302 294 294 292 290 286
226 229 234 238 243 250 259 277 305 331 345 351 355 355 358 5 11 19 27 32 35 33 35 37 37 36 36 32 30 27 24 21 18 15 11 4 1 358 352 345 332 322 315 306 298 296 294 294 289
230 231 235 242 249 251 255 265 286 308 323 335 341 346 355 3 7 13 20 26 29 28 27 31 33 33 32 29 27 24 20 15 12 9 6 1 357 353 348 341 332 321 312 307 302 298 295 296 295
228 231 235 240 245 250 254 258 269 290 305 317 325 332 343 350 359 7 12 19 22 20 19 19 23 24 25 24 21 18 14 12 8 4 360 356 350 346 340 336 331 320 310 310 309 301 297 294 295
228 231 235 239 242 247 252 256 266 279 291 301 310 317 330 336 345 359 6 9 13 13 10 7 11 13 13 14 15 12 9 6 3 0 354 349 344 341 337 333 329 326 316 311 312 310 307 300 298
229 231 236 241 245 249 253 257 268 274 279 290 296 304 316 328 336 343 351 353 360 4 0 1 2 360 359 360 360 1 1 359 358 356 352 347 343 340 337 331 329 326 319 314 311 311 308 303 298
230 232 236 242 245 248 252 256 264 268 271 278 283 292 300 312 324 332 340 339 341 349 352 352 353 351 351 353 353 353 355 354 354 352 349 345 342 338 334 330 326 324 321 316 313 310 308 306 302